Francistown, Botswana

1:57 AM CAT on May 25, 2017 (GMT +0200)
Francistown

Weather History for FBFT - May, 2013

Change the Weather History Date:

Monday, May 13, 2013

  Actual Average Record
Temperature  
Mean Temperature 68 °F -  
Max Temperature 78 °F 75 °F 89 °F (2008)
Min Temperature 57 °F 44 °F 39 °F (2006)
Cooling Degree Days 4    
Growing Degree Days 18 (Base 50)    
Moisture  
Dew Point 53 °F    
Average Humidity 63    
Maximum Humidity 88    
Minimum Humidity 32    
Precipitation  
Precipitation 0.00 in - - ()
Sea Level Pressure  
Sea Level Pressure 30.27 in    
Wind  
Wind Speed 9 mph ()    
Max Wind Speed 15 mph    
Max Gust Speed -    
Visibility 6.2 miles    
Events      
Averages and records for this station are not official NWS values.
T = Trace of Precipitation, MM = Missing Value Source: Averaged Metar Reports

Daily Weather History Graph

Daily Weather History Graph

Search for Another Location

Airport or City:

Trip Planner

Search our weather history database for the weather conditions in past years. The results will help you decide how hot, cold, wet, or windy it might be!

Date:

Astronomy

May. 13, 2013 Rise Set
Actual Time 6:32 AM CAT 5:40 PM CAT
Civil Twilight 6:08 AM CAT 6:03 PM CAT
Nautical Twilight 5:42 AM CAT 6:30 PM CAT
Astronomical Twilight 5:15 AM CAT 6:57 PM CAT
Moon 9:12 AM CAT (5/13) 8:29 PM CAT (5/13)
Length of Visible Light 11h 54m
Length of Day
11h 07m
Waxing Crescent, 10% of the Moon is Illuminated
May 13
Waxing Crescent
May 18
First Quarter
May 25
Full
May 31
Last Quarter
Jun 8
New

Hourly Weather History & Observations

Time (CAT) Temp. Dew Point Humidity Pressure Visibility Wind Dir Wind Speed Gust Speed Precip Events Conditions
12:00 AM 64.4 °F 55.4 °F 73% 30.27 in - ESE 10.4 mph - N/A   Clear
1:00 AM 62.6 °F 55.4 °F 77% 30.27 in - East 10.4 mph - N/A   Clear
2:00 AM 60.8 °F 55.4 °F 82% 30.27 in - East 9.2 mph - N/A   Clear
3:00 AM 60.8 °F 55.4 °F 82% 30.24 in - East 9.2 mph - N/A   Clear
4:00 AM 59.0 °F 55.4 °F 88% 30.24 in - SE 4.6 mph - N/A   Clear
5:00 AM 59.0 °F 55.4 °F 88% 30.27 in - ESE 5.8 mph - N/A   Clear
6:00 AM 59.0 °F 55.4 °F 88% 30.27 in - ENE 11.5 mph - N/A   Clear
7:00 AM 60.8 °F 55.4 °F 82% 30.30 in 6.2 mi East 10.4 mph - N/A   Mostly Cloudy
8:00 AM 63 °F 55 °F 69%  in 6 mi East 11.5 mph - -   Partly Cloudy
8:00 AM 62.6 °F 55.4 °F 77% 30.33 in 6.2 mi East 11.5 mph - N/A   Scattered Clouds
9:00 AM 66.2 °F 55.4 °F 68% 30.33 in 6.2 mi ESE 13.8 mph - N/A   Partly Cloudy
10:00 AM 69.8 °F 55.4 °F 60% 30.36 in 6.2 mi ESE 12.7 mph - N/A   Partly Cloudy
11:00 AM 73.4 °F 55.4 °F 53% 30.33 in 6.2 mi ESE 9.2 mph - N/A   Partly Cloudy
12:00 PM 75.2 °F 53.6 °F 47% 30.30 in 6.2 mi East 11.5 mph - N/A   Partly Cloudy
1:00 PM 77.0 °F 53.6 °F 44% 30.27 in 6.2 mi ENE 15.0 mph - N/A   Partly Cloudy
2:00 PM 78.8 °F 51.8 °F 39% 30.24 in 6.2 mi ESE 8.1 mph - N/A   Partly Cloudy
3:00 PM 78.8 °F 46.4 °F 32% 30.21 in 6.2 mi East 9.2 mph - N/A   Partly Cloudy
4:00 PM 78.8 °F 50.0 °F 36% 30.21 in 6.2 mi East 13.8 mph - N/A   Partly Cloudy
5:00 PM 77.0 °F 50.0 °F 39% 30.21 in 6.2 mi ESE 6.9 mph - N/A   Partly Cloudy
6:00 PM 73.4 °F 50.0 °F 44% 30.24 in - SSE 10.4 mph - N/A   Clear
7:00 PM 69.8 °F 50.0 °F 49% 30.24 in - ESE 8.1 mph - N/A   Clear
8:00 PM 68.0 °F 50.0 °F 52% 30.27 in - SE 6.9 mph - N/A   Clear
9:00 PM 62.6 °F 50.0 °F 63% 30.30 in - SE 3.5 mph - N/A   Clear
11:00 PM 57.2 °F 48.2 °F 72% 30.30 in - SE 6.9 mph - N/A   Clear